Location: Newark
(15.4608°S, 41.1635°W)
Time: 10:18:07
(UTC+00:00)

Vanguard 3 - Pass Details

Date: 05 August 2021
Orbit: 510 x 3260 km, 33.3° (Epoch: 22 September)

Event Time Altitude Azimuth Distance (km) Brightness Sun altitude
Rises 08:17:39 0° 259° (WSW) 4,739 - -12.1°
Reaches altitude 10° 08:22:45 10° 240° (WSW) 3,163 - -10.9°
Exits shadow 08:23:18 11° 237° (WSW) 3,011 9.5 -10.8°
Maximum altitude 08:27:12 17° 203° (SSW) 2,216 9.0 -9.9°
Drops below altitude 10° 08:30:37 10° 163° (SSE) 2,299 9.5 -9.1°
Sets 08:33:30 0° 140° (SE) 2,954 10.4 -8.4°
